www.pogodaiklimat.ru

Погода и климат >> Архив погоды >> Австралия >> Южная Австралия >> Таркула


ПОГОДА в Таркуле

  • Прогноз погоды в Таркуле
  • Монитор погоды в Таркуле

АРХИВ ПОГОДЫ в Таркуле

Время (UTC), дата Ветер
(напр.,м/с)
 
Видим.   Явления Облачность Т
(С)
Тd
(С)
f
(%)
Тe
(С)
Тes
(С)
Комфортность P
(гПа)
Po
(гПа)
Тmin
(С)
Tmax
(С)
R
(мм)
R24
(мм)
S
(см)
04 12.02 ЮЗ 10 н/о н/о +27.6 +5.8 25 +27 +27 жарко 1007.8 993.8
05 12.02 ЮЗ 9 н/о н/о +29.2 +6.0 23 +28 +28 жарко 1007.6 993.6
07 12.02 ЮЗ 9 н/о н/о +26.7 +6.7 28 +26 +26 жарко 1007.9 993.9
08 12.02 ЮЗ 9 н/о н/о +25.5 +8.1 33 +26 +26 жарко 1008.9 994.9
10 12.02 ЮЗ 9 н/о н/о +20.6 +9.5 49 +22 +22 комфорт 1011.4 997.4
11 12.02 ЮЗ 7 н/о н/о +19.3 +8.6 50 +20 +20 1012.7 998.7
13 12.02 ЮЗ 6 н/о н/о +18.1 +7.8 51 +18 +18 1014.6 1000.5 +30.0
14 12.02 ЮЗ 7 н/о н/о +17.5 +7.8 53 +17 +17 1014.3 1000.2
16 12.02 Ю 5 н/о н/о +16.1 +7.1 55 +15 +15 1014.3 1000.2
17 12.02 Ю 5 н/о н/о +16.1 +7.3 56 +15 +15 1014.5 1000.4
19 12.02 Ю 4 н/о н/о +15.4 +7.2 58 +15 +15 1015.1 1001.0
20 12.02 Ю 2 н/о н/о +13.5 +6.4 62 +13 +13 1015.7 1001.6
22 12.02 Ю 4 н/о н/о +16.2 +6.6 53 +16 +16 1017.6 1003.5
23 12.02 Ю 5 н/о н/о +18.1 +6.3 46 +18 +18 1018.5 1004.4
01 13.02 Ю 5 н/о н/о +20.2 +4.3 35 +21 +21 комфорт 1019.1 1005.0 +12.0
02 13.02 Ю 6 н/о н/о +20.8 +4.0 33 +21 +21 комфорт 1018.9 1004.8
04 13.02 Ю 4 н/о н/о +22.3 +3.9 30 +22 +22 комфорт 1017.9 1003.8
05 13.02 Ю 4 н/о н/о +23.6 +4.0 28 +23 +23 комфорт 1017.3 1003.2
07 13.02 Ю 3 н/о н/о +25.2 +3.8 25 +24 +24 комфорт 1016.2 1002.1
08 13.02 Ю 6 н/о н/о +25.3 +2.7 23 +24 +24 комфорт 1016.2 1002.1
10 13.02 Ю 4 н/о н/о +23.3 +2.7 26 +23 +23 комфорт 1017.0 1002.9
11 13.02 ЮВ 4 н/о н/о +22.2 +2.3 27 +22 +22 комфорт 1017.7 1003.6
13 13.02 Ю 7 н/о н/о +19.5 +4.8 38 +20 +20 1018.6 1004.5 +25.9
14 13.02 Ю 7 н/о н/о +17.8 +5.7 45 +17 +17 1018.7 1004.6
16 13.02 Ю 4 н/о н/о +15.9 +5.8 51 +15 +15 1018.5 1004.4
17 13.02 Ю 3 н/о н/о +15.2 +5.7 53 +15 +15 1018.5 1004.4
19 13.02 Ю 2 н/о н/о +14.1 +6.0 58 +14 +14 1018.4 1004.3
20 13.02 ЮВ 2 н/о н/о +12.9 +5.1 59 +13 +13 1018.9 1004.8
22 13.02 В 6 н/о н/о +17.8 +5.1 43 +17 +17 1020.0 1005.9
23 13.02 В 7 н/о н/о +20.0 +5.6 39 +20 +20 1020.7 1006.5
01 14.02 В 6 н/о н/о +24.7 +5.0 28 +24 +24 комфорт 1020.8 1006.6 +13.0
02 14.02 В 4 н/о н/о +25.5 +3.5 24 +25 +25 комфорт 1020.1 1006.0
04 14.02 СВ 4 н/о н/о +28.4 +1.8 18 +26 +26 жарко 1018.6 1004.5
05 14.02 В 4 н/о н/о +28.8 +0.5 16 +26 +26 жарко 1017.7 1003.6
07 14.02 В 2 н/о н/о +30.5 +1.0 15 +28 +28 жарко 1016.7 1002.6
08 14.02 В 6 н/о н/о +30.3 -0.1 14 +27 +27 жарко 1016.7 1002.6
10 14.02 В 4 н/о н/о +28.0 -0.1 16 +26 +26 жарко 1017.2 1003.1
11 14.02 ЮВ 3 н/о н/о +25.2 0.0 19 +24 +24 комфорт 1018.0 1003.9
13 14.02 ЮВ 4 н/о н/о +23.1 +0.9 23 +22 +22 комфорт 1018.9 1004.8 +31.0
14 14.02 В 3 н/о н/о +22.4 +0.9 24 +22 +22 комфорт 1018.9 1004.8
16 14.02 В 3 н/о н/о +18.7 +0.3 29 +19 +19 1018.6 1004.5
17 14.02 В 3 н/о н/о +18.7 +0.8 30 +19 +19 1018.3 1004.2
19 14.02 штиль 0 н/о н/о +16.3 -0.4 32 +16 +16 1018.3 1004.2
20 14.02 З 3 н/о н/о +13.8 -1.0 36 +13 +13 1019.0 1004.9
22 14.02 В 4 н/о н/о +22.5 +0.9 24 +22 +22 комфорт 1020.8 1006.6
23 14.02 В 5 н/о н/о +25.4 +2.2 22 +24 +24 комфорт 1021.5 1007.3
01 15.02 СВ 4 н/о н/о +29.1 -0.1 15 +26 +26 жарко 1021.4 1007.2 +13.4
02 15.02 С 2 н/о н/о +31.2 -0.5 13 +28 +28 жарко 1020.6 1006.4
04 15.02 Ю 3 н/о н/о +32.4 -1.8 11 +29 +29 жарко 1018.6 1004.5
05 15.02 ЮВ 4 н/о н/о +32.7 -1.6 11 +29 +29 жарко 1017.8 1003.7
07 15.02 Ю 5 н/о н/о +34.6 -1.4 10 +31 +31 жарко 1016.5 1002.4
08 15.02 ЮЗ 4 н/о н/о +33.9 -0.7 11 +30 +30 жарко 1016.2 1002.1
10 15.02 Ю 2 н/о н/о +31.6 -1.2 12 +28 +28 жарко 1016.9 1002.8
11 15.02 ЮВ 4 н/о н/о +30.2 -2.3 12 +27 +27 жарко 1017.7 1003.6
13 15.02 В 3 н/о н/о +25.8 -2.8 15 +24 +24 комфорт 1017.8 1003.7 +35.2
14 15.02 ЮЗ 5 н/о н/о +26.0 -0.9 17 +24 +24 комфорт 1017.9 1003.8
16 15.02 ЮЗ 2 н/о н/о +21.5 +0.7 25 +21 +21 комфорт 1017.3 1003.2
17 15.02 Ю 2 н/о н/о +21.2 +1.5 27 +21 +21 комфорт 1016.8 1002.7
19 15.02 СВ 2 н/о н/о +22.3 +2.4 27 +22 +22 комфорт 1016.1 1002.0
20 15.02 Ю 2 н/о н/о +19.9 +1.8 30 +21 +21 комфорт 1016.6 1002.5
22 15.02 ЮЗ 1 н/о н/о +22.2 +1.8 26 +22 +22 комфорт 1017.4 1003.3
23 15.02 В 4 н/о н/о +27.6 +1.2 18 +26 +26 жарко 1017.5 1003.4
01 16.02 ЮВ 2 н/о н/о +33.3 +0.1 12 +30 +30 жарко 1017.3 1003.2 +16.7
02 16.02 С 3 н/о н/о +33.7 -0.8 11 +30 +30 жарко 1016.4 1002.3
04 16.02 Ю 3 н/о н/о +36.6 +0.1 10 +33 +33 жарко 1014.3 1000.2
05 16.02 В 4 н/о н/о +36.8 +0.2 10 +33 +33 жарко 1013.1 999.0
07 16.02 Ю 3 н/о н/о +37.7 -0.6 9 +34 +34 очень
жарко
1011.6 997.6
08 16.02 Ю 3 н/о н/о +37.4 -0.8 9 +34 +34 очень
жарко
1011.3 997.3
10 16.02 Ю 3 н/о н/о +34.9 +0.1 11 +31 +31 жарко 1011.6 997.6
11 16.02 В 3 н/о н/о +31.2 -1.5 12 +28 +28 жарко 1012.3 998.3
13 16.02 Ю 5 н/о н/о +30.2 +2.5 17 +28 +28 жарко 1013.1 999.0 +38.9
14 16.02 Ю 2 н/о н/о +26.8 +2.0 20 +25 +25 комфорт 1012.7 998.7
16 16.02 Ю 1 н/о н/о +24.0 +3.9 27 +24 +24 комфорт 1011.4 997.4
17 16.02 ЮВ 6 н/о н/о +27.1 +2.2 20 +25 +25 комфорт 1010.9 996.9
19 16.02 В 5 н/о н/о +25.2 +1.3 21 +24 +24 комфорт 1010.8 996.8
20 16.02 В 5 н/о н/о +23.9 +1.5 23 +23 +23 комфорт 1010.7 996.7
22 16.02 С 4 н/о н/о +25.5 +0.9 20 +24 +24 комфорт 1011.9 997.9
23 16.02 СВ 5 н/о н/о +29.0 +0.7 16 +27 +27 жарко 1011.9 997.9
01 17.02 С 5 н/о н/о +35.5 +0.6 11 +32 +32 жарко 1011.3 997.3 +22.4
02 17.02 С 5 н/о н/о +36.8 +0.2 10 +33 +33 жарко 1010.4 996.4
04 17.02 С 3 н/о н/о +39.7 -0.7 8 +36 +36 очень
жарко
1008.4 994.4
05 17.02 З 4 н/о н/о +40.4 -0.2 8 +37 +37 очень
жарко
1007.5 993.5
07 17.02 СЗ 3 н/о н/о +40.2 -0.3 8 +36 +36 очень
жарко
1006.2 992.2
08 17.02 С 3 н/о н/о +40.0 -0.5 8 +36 +36 очень
жарко
1006.0 992.0
10 17.02 СЗ 3 н/о н/о +35.9 -0.5 10 +32 +32 жарко 1006.1 992.1
11 17.02 С 3 н/о н/о +32.3 -1.9 11 +29 +29 жарко 1006.4 992.4
13 17.02 ЮЗ 7 н/о н/о +29.4 +2.6 18 +27 +27 жарко 1007.9 993.9 +41.6
14 17.02 ЮЗ 6 н/о н/о +27.4 +3.8 22 +26 +26 жарко 1008.3 994.3
16 17.02 ЮЗ 7 н/о н/о +23.5 +8.0 37 +24 +24 комфорт 1008.2 994.2
17 17.02 ЮЗ 6 н/о н/о +21.6 +11.3 52 +24 +24 комфорт 1008.4 994.4
19 17.02 ЮЗ 7 н/о н/о +19.2 +14.7 75 +20 +20 1009.3 995.3
20 17.02 ЮЗ 6 н/о н/о +18.7 +14.4 76 +19 +19 1009.4 995.4
22 17.02 Ю 7 н/о н/о +19.8 +13.7 68 +21 +21 комфорт 1011.0 997.0
23 17.02 Ю 7 н/о н/о +21.4 +13.1 59 +24 +24 комфорт 1011.9 997.9
01 18.02 Ю 8 н/о н/о +24.5 +11.5 44 +26 +26 жарко 1012.3 998.3 +18.5
02 18.02 ЮЗ 7 н/о н/о +25.9 +9.7 36 +27 +27 жарко 1012.1 998.1
04 18.02 ЮЗ 7 н/о н/о +29.3 +9.4 29 +29 +29 жарко 1011.1 997.1
05 18.02 ЮЗ 6 н/о н/о +30.2 +8.0 25 +29 +29 жарко 1010.5 996.5
07 18.02 Ю 7 н/о н/о +30.9 +7.4 23 +30 +30 жарко 1010.2 996.2
08 18.02 ЮЗ 8 н/о н/о +30.0 +6.6 23 +29 +29 жарко 1010.6 996.6
10 18.02 ЮЗ 9 н/о н/о +25.6 +7.7 32 +26 +26 жарко 1012.5 998.5
11 18.02 Ю 8 н/о н/о +23.1 +9.1 41 +25 +25 комфорт 1013.8 999.7
13 18.02 Ю 6 н/о н/о +19.4 +10.4 56 +20 +20 1015.1 1001.0 +32.1
14 18.02 ЮЗ 7 н/о н/о +18.3 +10.2 59 +18 +18 1015.2 1001.1
16 18.02 Ю 5 н/о н/о +16.8 +9.7 63 +16 +16 1015.0 1000.9
17 18.02 Ю 5 н/о н/о +16.0 +9.2 64 +15 +15 1014.6 1000.5
19 18.02 Ю 4 н/о н/о +14.9 +9.1 68 +14 +14 1014.8 1000.7
20 18.02 Ю 4 н/о н/о +14.2 +8.8 70 +13 +13 1015.0 1000.9
22 18.02 Ю 5 н/о н/о +16.0 +9.0 63 +15 +15 1016.2 1002.1
23 18.02 ЮВ 6 н/о н/о +18.4 +9.2 55 +18 +18 1016.8 1002.7
01 19.02 Ю 5 н/о н/о +22.8 +8.9 41 +24 +24 комфорт 1017.0 1002.9 +13.8
02 19.02 ЮВ 4 н/о н/о +25.1 +7.3 32 +25 +25 комфорт 1016.5 1002.4

 

Местоположение метеостанции Таркула (Южная Австралия, Австралия): широта -30.72 долгота 134.58 высота над уровнем моря 124 м.

В архиве по умолчанию представлена погода в Таркуле за последнюю неделю. Архивные данные за месяц целиком и за предыдущие месяцы, начиная с января 2011 года, Вы можете получить, выбрав интересующий диапазон дат из раскрывающегося списка и нажав кнопку "Ввод!".


*Определитесь, кто Вы:
робот инопланетянин человек

Внимание! Время в таблицах - всемирное. Для получения местного времени необходимо прибавить поправку, которая равна 9.5 ч.

Смотрите также архив погоды в соседних городах и на ближайших метеорологических станциях:

Погода в Сидуне (Южная Австралия, Австралия) (178 км)
Погода в Кубер-Педи (Южная Австралия, Австралия) (188 км)
Погода на Аэродроме Вумера (Южная Австралия, Австралия) (218 км)
Погода в Олимпик Дэм (Южная Австралия, Австралия) (222 км)
Погода в Миннипа Пирса (Южная Австралия, Австралия) (243 км)
Погода в Уудинне (Южная Австралия, Австралия) (272 км)
Погода в Марри (Южная Австралия, Австралия) (355 км)
Погода в Порт Огаста (Южная Австралия, Австралия) (358 км)
Погода в Наллаборе (Южная Австралия, Австралия) (360 км)
Погода в Однадатте (Южная Австралия, Австралия) (363 км)

Пояснения к столбцам:

Ветер - указаны скорость ветра в м/с - средняя за 10 мин, порывы в срок и между сроками (в фигурных скобках) и направление, откуда дует ветер: С - северный, СВ - северо-восточный, В - восточный, ЮВ - юго-восточный, Ю - южный, ЮЗ - юго-западный, З - западный, СЗ - северо-западный.
Видимость - горизонтальная дальность видимости в метрах или километрах. При видимости от 1 до 10 км при отсутствии осадков обычно наблюдается дымка, при ухудшении видимости до 1 км и менее - туман. В сухую погоду видимость может ухудшаться дымом, пылью или мглою.
Явления - указаны атмосферные явления, наблюдавшиеся в срок или в последний час перед сроком; фигурными скобками обозначены явления, наблюдавшиеся между сроками (за 1-3 часа до срока); квадратными скобками обозначены град или гололедные отложения с указанием их диаметра в мм.
Облачность - указаны через наклонную черту общая и нижняя облачность в баллах и высота нижней границы облаков в метрах; квадратными скобками обозначены формы облаков: Ci - перистые, Cs - перисто-слоистые, Cc - перисто-кучевые, Ac - высококучевые, As - высокослоистые, Sc - слоисто-кучевые, Ns - слоисто-дождевые, Cu - кучевые, Cb - кучево-дождевые. Подробнее классификацию облаков см. в Атласе облаков (PDF).
T - Температура воздуха - температура, измеренная на высоте 2 м над землей.
Td - Температура точки росы - температура, при понижении до которой содержащийся в воздухе водяной пар достигнет насыщения.
f - Относительная влажность воздуха - влажноcть воздуха, измеренная на высоте 2 м над землей.
Te - Эффективная температура - температура, которую ощущает одетый по сезону человек в тени. Характеристика душности погоды. При расчете учитывается влияние влажности воздуха и скорости ветра на теплоощущения человека.
Tes - Эффективная температура на солнце - температура, которую ощущает человек, с поправкой на солнечный нагрев. Характеристика знойности погоды. Зависит от высоты солнца над горизонтом, облачности и скорости ветра. Ночью, в пасмурную погоду, а также при ветре 12 м/с и более поправка равна нулю.
P - Атмосферное давление - приведенное к уровню моря атмосферное давление.
Po - Атмосферное давление - измеренное на уровне метеостанции атмосферное давление.
Tmin - Минимальная температура - минимум температуры воздуха на высоте 2 м над землей.
Tmax - Максимальная температура - максимум температуры воздуха на высоте 2 м над землей.
R - Количество осадков - Количество выпавших осадков за период времени, мм. При наведении курсора мыши на число - период времени, за который выпало указанное количество осадков.
R24 - Количество осадков - Количество выпавших осадков за 24 часа, мм.
S - Снежный покров - Высота снежного покрова, см. При наведении курсора мыши на число - состояние снежного покрова и степень покрытия местности в баллах.